sat.trackr.live / text

‹ back to catalog

QIANFAN-50

NORAD 62251 · 2024-232Q

PAYLOAD ACTIVE UNKNOWN

§ Identity

Operator
Country
PRC
Launch date
2024-12-05
Launch site
TAISC
Launch vehicle
Mass (kg)
RCS (m²)

External: N2YO · Heavens-Above · Gunter

§ Orbital elements

Epoch: 2026-05-25T04:11:37.077216Z

Period
106.59 min
Inclination
89.0106°
Eccentricity
0.0017863
Mean motion
13.51004679 rev/d
Perigee alt
1,055.3 km
Apogee alt
1,081.9 km
Semi-major
7,446.7 km
B*
1.6782e-4
RAAN
24.8269°
Arg perigee
83.7175°
Mean anomaly
276.6010°
Rev number
8,993

§ Raw data

QIANFAN-501 62251U 24232Q   26145.17473469  .00000121  00000+0  16782-3 0  99982 62251  89.0106  24.8269 0017863  83.7175 276.6010 13.51004679 89936

JSON: /api/v1/satellites/62251 · /tle

For live sub-satellite position, see the globe view (requires WebGL).

§ Visibility from observer

Set your observer location to see the next 7 days of passes ≥ 10°. The values pass through the URL so the page stays shareable.

No JS? Fill the form by hand. The geolocation button needs JavaScript.